Year,Month,Day,Hour,Minute,Value (Times are PST for windspeed in km/hr)
2013,09,30,00,00,1.00
2013,09,30,00,01,1.50
2013,09,30,00,02,0.30
2013,09,30,00,03,0.10
2013,09,30,00,04,0.60
2013,09,30,00,05,1.50
2013,09,30,00,06,0.80
2013,09,30,00,07,1.20
2013,09,30,00,08,0.10
2013,09,30,00,09,1.00
2013,09,30,00,10,1.70
2013,09,30,00,11,1.50
2013,09,30,00,12,0.60
2013,09,30,00,13,0.10
2013,09,30,00,14,2.50
2013,09,30,00,15,3.10
2013,09,30,00,16,1.90
2013,09,30,00,17,1.10
2013,09,30,00,18,0.80
2013,09,30,00,19,3.80
2013,09,30,00,20,0.70
2013,09,30,00,21,2.90
2013,09,30,00,22,2.20
2013,09,30,00,23,2.70
2013,09,30,00,24,1.60
2013,09,30,00,25,1.50
2013,09,30,00,26,2.70
2013,09,30,00,27,2.90
2013,09,30,00,28,1.80
2013,09,30,00,29,3.40
2013,09,30,00,30,1.30
2013,09,30,00,31,3.00
2013,09,30,00,32,4.10
2013,09,30,00,33,2.60
2013,09,30,00,34,0.80
2013,09,30,00,35,2.80
2013,09,30,00,36,2.00
2013,09,30,00,37,6.40
2013,09,30,00,38,2.20
2013,09,30,00,39,3.20
2013,09,30,00,40,1.40
2013,09,30,00,41,0.60
2013,09,30,00,42,1.90
2013,09,30,00,43,2.80
2013,09,30,00,44,3.70
2013,09,30,00,45,4.50
2013,09,30,00,46,1.50
2013,09,30,00,47,3.20
2013,09,30,00,48,1.50
2013,09,30,00,49,0.40
2013,09,30,00,50,2.10
2013,09,30,00,51,2.00
2013,09,30,00,52,1.90
2013,09,30,00,53,2.80
2013,09,30,00,54,3.50
2013,09,30,00,55,2.00
2013,09,30,00,56,3.40
2013,09,30,00,57,3.60
2013,09,30,00,58,3.50
2013,09,30,00,59,2.80
2013,09,30,01,00,4.10
2013,09,30,01,01,3.20
2013,09,30,01,02,2.00
2013,09,30,01,03,6.40
2013,09,30,01,04,2.90
2013,09,30,01,05,3.10
2013,09,30,01,06,4.20
2013,09,30,01,07,5.10
2013,09,30,01,08,1.90
2013,09,30,01,09,0.70
2013,09,30,01,10,1.90
2013,09,30,01,11,3.20
2013,09,30,01,12,3.80
2013,09,30,01,13,2.40
2013,09,30,01,14,2.10
2013,09,30,01,15,3.90
2013,09,30,01,16,1.60
2013,09,30,01,17,5.10
2013,09,30,01,18,1.60
2013,09,30,01,19,3.80
2013,09,30,01,20,2.80
2013,09,30,01,21,1.80
2013,09,30,01,22,1.50
2013,09,30,01,23,3.10
2013,09,30,01,24,4.30
2013,09,30,01,25,1.20
2013,09,30,01,26,2.30
2013,09,30,01,27,2.30
2013,09,30,01,28,0.70
2013,09,30,01,29,3.50
2013,09,30,01,30,1.20
2013,09,30,01,31,2.00
2013,09,30,01,32,2.40
2013,09,30,01,33,1.50
2013,09,30,01,34,2.10
2013,09,30,01,35,2.90
2013,09,30,01,36,4.50
2013,09,30,01,37,3.80
2013,09,30,01,38,0.20
2013,09,30,01,39,0.00
2013,09,30,01,40,0.60
2013,09,30,01,41,1.60
2013,09,30,01,42,2.00
2013,09,30,01,43,1.50
2013,09,30,01,44,1.80
2013,09,30,01,45,1.30
2013,09,30,01,46,1.90
2013,09,30,01,47,3.00
2013,09,30,01,48,0.00
2013,09,30,01,49,2.70
2013,09,30,01,50,0.20
2013,09,30,01,51,0.90
2013,09,30,01,52,1.90
2013,09,30,01,53,0.10
2013,09,30,01,54,0.40
2013,09,30,01,55,0.00
2013,09,30,01,56,2.20
2013,09,30,01,57,0.70
2013,09,30,01,58,1.40
2013,09,30,01,59,0.00
2013,09,30,02,00,1.20
2013,09,30,02,01,1.50
2013,09,30,02,02,0.80
2013,09,30,02,03,0.30
2013,09,30,02,04,0.70
2013,09,30,02,05,0.60
2013,09,30,02,06,1.40
2013,09,30,02,07,0.50
2013,09,30,02,08,1.40
2013,09,30,02,09,2.30
2013,09,30,02,10,3.80
2013,09,30,02,11,6.80
2013,09,30,02,12,4.60
2013,09,30,02,13,4.70
2013,09,30,02,14,3.10
2013,09,30,02,15,6.80
2013,09,30,02,16,7.20
2013,09,30,02,17,3.80
2013,09,30,02,18,4.20
2013,09,30,02,19,3.00
2013,09,30,02,20,3.90
2013,09,30,02,21,3.70
2013,09,30,02,22,2.10
2013,09,30,02,23,4.00
2013,09,30,02,24,0.10
2013,09,30,02,25,3.80
2013,09,30,02,26,0.70
2013,09,30,02,27,1.30
2013,09,30,02,28,1.60
2013,09,30,02,29,4.90
2013,09,30,02,30,5.40
2013,09,30,02,31,2.80
2013,09,30,02,32,4.50
2013,09,30,02,33,3.90
2013,09,30,02,34,5.70
2013,09,30,02,35,3.50
2013,09,30,02,36,3.90
2013,09,30,02,37,4.10
2013,09,30,02,38,2.80
2013,09,30,02,39,1.50
2013,09,30,02,40,2.80
2013,09,30,02,41,4.70
2013,09,30,02,42,4.40
2013,09,30,02,43,2.30
2013,09,30,02,44,0.70
2013,09,30,02,45,2.50
2013,09,30,02,46,1.90
2013,09,30,02,47,3.10
2013,09,30,02,48,2.30
2013,09,30,02,49,1.80
2013,09,30,02,50,0.80
2013,09,30,02,51,2.60
2013,09,30,02,52,1.00
2013,09,30,02,53,0.30
2013,09,30,02,54,1.30
2013,09,30,02,55,0.90
2013,09,30,02,56,4.10
2013,09,30,02,57,3.50
2013,09,30,02,58,2.30
2013,09,30,02,59,1.80
2013,09,30,03,00,9.30
2013,09,30,03,01,4.70
2013,09,30,03,02,2.30
2013,09,30,03,03,2.20
2013,09,30,03,04,3.90
2013,09,30,03,05,4.80
2013,09,30,03,06,2.20
2013,09,30,03,07,4.30
2013,09,30,03,08,1.10
2013,09,30,03,09,1.40
2013,09,30,03,10,1.00
2013,09,30,03,11,5.30
2013,09,30,03,12,3.00
2013,09,30,03,13,4.80
2013,09,30,03,14,0.90
2013,09,30,03,15,3.00
2013,09,30,03,16,2.20
2013,09,30,03,17,4.40
2013,09,30,03,18,3.10
2013,09,30,03,19,0.40
2013,09,30,03,20,1.30
2013,09,30,03,21,0.50
2013,09,30,03,22,1.10
2013,09,30,03,23,1.50
2013,09,30,03,24,3.90
2013,09,30,03,25,1.30
2013,09,30,03,26,2.50
2013,09,30,03,27,5.60
2013,09,30,03,28,2.30
2013,09,30,03,29,1.30
2013,09,30,03,30,0.60
2013,09,30,03,31,2.30
2013,09,30,03,32,0.10
2013,09,30,03,33,0.80
2013,09,30,03,34,2.50
2013,09,30,03,35,0.60
2013,09,30,03,36,2.90
2013,09,30,03,37,2.80
2013,09,30,03,38,2.00
2013,09,30,03,39,2.70
2013,09,30,03,40,4.30
2013,09,30,03,41,5.90
2013,09,30,03,42,1.20
2013,09,30,03,43,1.90
2013,09,30,03,44,0.50
2013,09,30,03,45,1.40
2013,09,30,03,46,3.90
2013,09,30,03,47,2.70
2013,09,30,03,48,1.50
2013,09,30,03,49,1.10
2013,09,30,03,50,3.80
2013,09,30,03,51,1.50
2013,09,30,03,52,1.60
2013,09,30,03,53,1.10
2013,09,30,03,54,1.10
2013,09,30,03,55,1.20
2013,09,30,03,56,1.80
2013,09,30,03,57,1.10
2013,09,30,03,58,0.70
2013,09,30,03,59,1.40
2013,09,30,04,00,1.50
2013,09,30,04,01,2.90
2013,09,30,04,02,4.80
2013,09,30,04,03,1.40
2013,09,30,04,04,0.40
2013,09,30,04,05,0.90
2013,09,30,04,06,2.10
2013,09,30,04,07,1.60
2013,09,30,04,08,0.40
2013,09,30,04,09,2.10
2013,09,30,04,10,1.00
2013,09,30,04,11,2.90
2013,09,30,04,12,1.90
2013,09,30,04,13,3.70
2013,09,30,04,14,4.70
2013,09,30,04,15,6.00
2013,09,30,04,16,3.30
2013,09,30,04,17,1.50
2013,09,30,04,18,0.50
2013,09,30,04,19,0.60
2013,09,30,04,20,4.10
2013,09,30,04,21,4.60
2013,09,30,04,22,4.30
2013,09,30,04,23,2.30
2013,09,30,04,24,2.60
2013,09,30,04,25,1.40
2013,09,30,04,26,0.20
2013,09,30,04,27,2.10
2013,09,30,04,28,0.60
2013,09,30,04,29,0.40
2013,09,30,04,30,0.30
2013,09,30,04,31,1.00
2013,09,30,04,32,0.70
2013,09,30,04,33,0.20
2013,09,30,04,34,0.00
2013,09,30,04,35,0.50
2013,09,30,04,36,2.20
2013,09,30,04,37,2.10
2013,09,30,04,38,0.80
2013,09,30,04,39,2.50
2013,09,30,04,40,0.10
2013,09,30,04,41,2.10
2013,09,30,04,42,3.10
2013,09,30,04,43,1.70
2013,09,30,04,44,1.20
2013,09,30,04,45,3.00
2013,09,30,04,46,2.80
2013,09,30,04,47,1.00
2013,09,30,04,48,1.00
2013,09,30,04,49,3.40
2013,09,30,04,50,4.30
2013,09,30,04,51,4.70
2013,09,30,04,52,1.10
2013,09,30,04,53,4.70
2013,09,30,04,54,3.10
2013,09,30,04,55,1.90
2013,09,30,04,56,1.30
2013,09,30,04,57,2.70
2013,09,30,04,58,0.90
2013,09,30,04,59,1.00
2013,09,30,05,00,2.50
2013,09,30,05,01,1.20
2013,09,30,05,02,3.10
2013,09,30,05,03,3.00
2013,09,30,05,04,2.70
2013,09,30,05,05,1.30
2013,09,30,05,06,2.10
2013,09,30,05,07,2.40
2013,09,30,05,08,1.60
2013,09,30,05,09,1.50
2013,09,30,05,10,1.70
2013,09,30,05,11,2.30
2013,09,30,05,12,0.30
2013,09,30,05,13,2.30
2013,09,30,05,14,3.40
2013,09,30,05,15,1.00
2013,09,30,05,16,1.30
2013,09,30,05,17,2.10
2013,09,30,05,18,0.70
2013,09,30,05,19,2.40
2013,09,30,05,20,2.30
2013,09,30,05,21,0.30
2013,09,30,05,22,0.60
2013,09,30,05,23,0.10
2013,09,30,05,24,0.40
2013,09,30,05,25,1.80
2013,09,30,05,26,6.30
2013,09,30,05,27,4.00
2013,09,30,05,28,3.50
2013,09,30,05,29,3.50
2013,09,30,05,30,4.20
2013,09,30,05,31,3.20
2013,09,30,05,32,2.90
2013,09,30,05,33,2.80
2013,09,30,05,34,2.90
2013,09,30,05,35,3.10
2013,09,30,05,36,8.60
2013,09,30,05,37,4.70
2013,09,30,05,38,5.90
2013,09,30,05,39,4.60
2013,09,30,05,40,2.20
2013,09,30,05,41,3.10
2013,09,30,05,42,3.30
2013,09,30,05,43,0.50
2013,09,30,05,44,1.20
2013,09,30,05,45,5.40
2013,09,30,05,46,2.60
2013,09,30,05,47,1.90
2013,09,30,05,48,0.60
2013,09,30,05,49,1.20
2013,09,30,05,50,6.40
2013,09,30,05,51,2.90
2013,09,30,05,52,2.80
2013,09,30,05,53,4.30
2013,09,30,05,54,2.00
2013,09,30,05,55,1.10
2013,09,30,05,56,1.80
2013,09,30,05,57,1.00
2013,09,30,05,58,0.40
2013,09,30,05,59,0.00
2013,09,30,06,00,0.20
2013,09,30,06,01,0.00
2013,09,30,06,02,0.00
2013,09,30,06,03,0.20
2013,09,30,06,04,0.00
2013,09,30,06,05,0.00
2013,09,30,06,06,0.00
2013,09,30,06,07,0.00
2013,09,30,06,08,0.00
2013,09,30,06,09,0.00
2013,09,30,06,10,0.00
2013,09,30,06,11,0.00
2013,09,30,06,12,0.00
2013,09,30,06,13,0.00
2013,09,30,06,14,0.00
2013,09,30,06,15,0.00
2013,09,30,06,16,0.00
2013,09,30,06,17,0.00
2013,09,30,06,18,0.00
2013,09,30,06,19,0.00
2013,09,30,06,20,0.00
2013,09,30,06,21,0.00
2013,09,30,06,22,0.00
2013,09,30,06,23,0.00
2013,09,30,06,24,0.00
2013,09,30,06,25,0.00
2013,09,30,06,26,0.00
2013,09,30,06,27,0.00
2013,09,30,06,28,0.00
2013,09,30,06,29,0.00
2013,09,30,06,30,0.00
2013,09,30,06,31,0.00
2013,09,30,06,32,0.10
2013,09,30,06,33,0.00
2013,09,30,06,34,0.00
2013,09,30,06,35,0.00
2013,09,30,06,36,0.00
2013,09,30,06,37,0.00
2013,09,30,06,38,0.00
2013,09,30,06,39,0.00
2013,09,30,06,40,0.00
2013,09,30,06,41,0.00
2013,09,30,06,42,0.00
2013,09,30,06,43,0.00
2013,09,30,06,44,0.00
2013,09,30,06,45,0.00
2013,09,30,06,46,0.00
2013,09,30,06,47,0.00
2013,09,30,06,48,0.00
2013,09,30,06,49,0.00
2013,09,30,06,50,0.00
2013,09,30,06,51,0.00
2013,09,30,06,52,0.00
2013,09,30,06,53,0.00
2013,09,30,06,54,0.00
2013,09,30,06,55,0.00
2013,09,30,06,56,0.00
2013,09,30,06,57,0.00
2013,09,30,06,58,0.00
2013,09,30,06,59,0.00
2013,09,30,07,00,0.00
2013,09,30,07,01,0.00
2013,09,30,07,02,0.00
2013,09,30,07,03,0.00
2013,09,30,07,04,0.00
2013,09,30,07,05,0.00
2013,09,30,07,06,0.00
2013,09,30,07,07,0.00
2013,09,30,07,08,0.00
2013,09,30,07,09,0.00
2013,09,30,07,10,0.00
2013,09,30,07,11,0.00
2013,09,30,07,12,0.00
2013,09,30,07,13,0.00
2013,09,30,07,14,0.00
2013,09,30,07,15,0.00
2013,09,30,07,16,0.00
2013,09,30,07,17,0.00
2013,09,30,07,18,0.00
2013,09,30,07,19,0.00
2013,09,30,07,20,0.00
2013,09,30,07,21,0.00
2013,09,30,07,22,0.00
2013,09,30,07,23,0.00
2013,09,30,07,24,0.00
2013,09,30,07,25,0.70
2013,09,30,07,26,2.10
2013,09,30,07,27,0.70
2013,09,30,07,28,2.80
2013,09,30,07,29,1.50
2013,09,30,07,30,0.10
2013,09,30,07,31,0.30
2013,09,30,07,32,0.00
2013,09,30,07,33,0.00
2013,09,30,07,34,0.00
2013,09,30,07,35,0.00
2013,09,30,07,36,0.00
2013,09,30,07,37,0.00
2013,09,30,07,38,0.50
2013,09,30,07,39,1.60
2013,09,30,07,40,1.90
2013,09,30,07,41,2.90
2013,09,30,07,42,2.00
2013,09,30,07,43,1.00
2013,09,30,07,44,1.00
2013,09,30,07,45,3.50
2013,09,30,07,46,1.80
2013,09,30,07,47,3.90
2013,09,30,07,48,1.60
2013,09,30,07,49,1.60
2013,09,30,07,50,1.60
2013,09,30,07,51,1.60
2013,09,30,07,52,2.70
2013,09,30,07,53,2.70
2013,09,30,07,54,4.30
2013,09,30,07,55,0.60
2013,09,30,07,56,0.20
2013,09,30,07,57,1.40
2013,09,30,07,58,1.50
2013,09,30,07,59,1.30
2013,09,30,08,00,1.80
2013,09,30,08,01,0.80
2013,09,30,08,02,1.40
2013,09,30,08,03,0.60
2013,09,30,08,04,0.00
2013,09,30,08,05,0.10
2013,09,30,08,06,0.00
2013,09,30,08,07,0.20
2013,09,30,08,08,0.00
2013,09,30,08,09,0.00
2013,09,30,08,10,1.80
2013,09,30,08,11,0.20
2013,09,30,08,12,0.20
2013,09,30,08,13,0.20
2013,09,30,08,14,0.00
2013,09,30,08,15,0.10
2013,09,30,08,16,0.00
2013,09,30,08,17,1.30
2013,09,30,08,18,0.00
2013,09,30,08,19,0.10
2013,09,30,08,20,0.00
2013,09,30,08,21,0.00
2013,09,30,08,22,0.00
2013,09,30,08,23,0.00
2013,09,30,08,24,0.00
2013,09,30,08,25,0.20
2013,09,30,08,26,0.00
2013,09,30,08,27,0.30
2013,09,30,08,28,0.50
2013,09,30,08,29,0.00
2013,09,30,08,30,0.00
2013,09,30,08,31,0.00
2013,09,30,08,32,0.00
2013,09,30,08,33,0.00
2013,09,30,08,34,0.00
2013,09,30,08,35,0.00
2013,09,30,08,36,0.00
2013,09,30,08,37,0.00
2013,09,30,08,38,0.00
2013,09,30,08,39,0.00
2013,09,30,08,40,0.00
2013,09,30,08,41,0.00
2013,09,30,08,42,0.00
2013,09,30,08,43,0.00
2013,09,30,08,44,0.10
2013,09,30,08,45,0.00
2013,09,30,08,46,0.00
2013,09,30,08,47,0.00
2013,09,30,08,48,0.00
2013,09,30,08,49,0.00
2013,09,30,08,50,0.00
2013,09,30,08,51,0.00
2013,09,30,08,52,0.00
2013,09,30,08,53,0.00
2013,09,30,08,54,0.00
2013,09,30,08,55,0.00
2013,09,30,08,56,0.20
2013,09,30,08,57,0.00
2013,09,30,08,58,0.00
2013,09,30,08,59,0.30
2013,09,30,09,00,0.30
2013,09,30,09,01,0.00
2013,09,30,09,02,0.80
2013,09,30,09,03,0.10
2013,09,30,09,04,0.00
2013,09,30,09,05,0.00
2013,09,30,09,06,1.00
2013,09,30,09,07,0.40
2013,09,30,09,08,0.00
2013,09,30,09,09,0.00
2013,09,30,09,10,0.00
2013,09,30,09,11,0.00
2013,09,30,09,12,0.00
2013,09,30,09,13,0.00
2013,09,30,09,14,0.00
2013,09,30,09,15,0.00
2013,09,30,09,16,0.00
2013,09,30,09,17,0.00
2013,09,30,09,18,0.00
2013,09,30,09,19,0.80
2013,09,30,09,20,0.60
2013,09,30,09,21,0.00
2013,09,30,09,22,0.00
2013,09,30,09,23,0.00
2013,09,30,09,24,0.00
2013,09,30,09,25,0.20
2013,09,30,09,26,1.80
2013,09,30,09,27,2.00
2013,09,30,09,28,4.30
2013,09,30,09,29,0.90
2013,09,30,09,30,2.20
2013,09,30,09,31,2.10
2013,09,30,09,32,0.90
2013,09,30,09,33,1.30
2013,09,30,09,34,2.40
2013,09,30,09,35,3.10
2013,09,30,09,36,3.30
2013,09,30,09,37,1.40
2013,09,30,09,38,1.40
2013,09,30,09,39,2.20
2013,09,30,09,40,4.90
2013,09,30,09,41,5.20
2013,09,30,09,42,2.30
2013,09,30,09,43,4.00
2013,09,30,09,44,3.50
2013,09,30,09,45,2.70
2013,09,30,09,46,1.80
2013,09,30,09,47,2.20
2013,09,30,09,48,1.30
2013,09,30,09,49,2.20
2013,09,30,09,50,2.30
2013,09,30,09,51,2.80
2013,09,30,09,52,1.60
2013,09,30,09,53,2.10
2013,09,30,09,54,0.90
2013,09,30,09,55,0.90
2013,09,30,09,56,1.20
2013,09,30,09,57,3.30
2013,09,30,09,58,2.40
2013,09,30,09,59,1.90
2013,09,30,10,00,2.70
2013,09,30,10,01,1.40
2013,09,30,10,02,0.90
2013,09,30,10,03,1.00
2013,09,30,10,04,1.20
2013,09,30,10,05,0.20
2013,09,30,10,06,0.00
2013,09,30,10,07,0.20
2013,09,30,10,08,0.20
2013,09,30,10,09,0.40
2013,09,30,10,10,0.20
2013,09,30,10,11,0.80
2013,09,30,10,12,1.50
2013,09,30,10,13,0.00
2013,09,30,10,14,0.50
2013,09,30,10,15,0.40
2013,09,30,10,16,0.00
2013,09,30,10,17,0.60
2013,09,30,10,18,0.00
2013,09,30,10,19,0.00
2013,09,30,10,20,0.20
2013,09,30,10,21,0.20
2013,09,30,10,22,1.90
2013,09,30,10,23,0.80
2013,09,30,10,24,1.90
2013,09,30,10,25,0.10
2013,09,30,10,26,0.50
2013,09,30,10,27,2.70
2013,09,30,10,28,0.60
2013,09,30,10,29,2.70
2013,09,30,10,30,0.40
2013,09,30,10,31,0.00
2013,09,30,10,32,1.60
2013,09,30,10,33,2.50
2013,09,30,10,34,1.40
2013,09,30,10,35,1.10
2013,09,30,10,36,0.10
2013,09,30,10,37,0.00
2013,09,30,10,38,0.00
2013,09,30,10,39,0.00
2013,09,30,10,40,0.60
2013,09,30,10,41,0.10
2013,09,30,10,42,1.30
2013,09,30,10,43,0.60
2013,09,30,10,44,0.00
2013,09,30,10,45,0.50
2013,09,30,10,46,0.00
2013,09,30,10,47,0.00
2013,09,30,10,48,0.10
2013,09,30,10,49,0.70
2013,09,30,10,50,0.60
2013,09,30,10,51,0.10
2013,09,30,10,52,0.00
2013,09,30,10,53,0.60
2013,09,30,10,54,1.40
2013,09,30,10,55,0.00
2013,09,30,10,56,0.10
2013,09,30,10,57,0.10
2013,09,30,10,58,0.00
2013,09,30,10,59,0.00
2013,09,30,11,00,0.10
2013,09,30,11,01,0.30
2013,09,30,11,02,1.90
2013,09,30,11,03,1.40
2013,09,30,11,04,2.50
2013,09,30,11,05,0.80
2013,09,30,11,06,0.00
2013,09,30,11,07,0.30
2013,09,30,11,08,0.20
2013,09,30,11,09,1.80
2013,09,30,11,10,0.50
2013,09,30,11,11,0.00
2013,09,30,11,12,0.00
2013,09,30,11,13,0.00
2013,09,30,11,14,1.30
2013,09,30,11,15,0.10
2013,09,30,11,16,1.90
2013,09,30,11,17,0.30
2013,09,30,11,18,0.10
2013,09,30,11,19,0.00
2013,09,30,11,20,0.00
2013,09,30,11,21,0.80
2013,09,30,11,22,0.70
2013,09,30,11,23,0.20
2013,09,30,11,24,1.00
2013,09,30,11,25,1.40
2013,09,30,11,26,0.40
2013,09,30,11,27,0.90
2013,09,30,11,28,3.90
2013,09,30,11,29,2.80
2013,09,30,11,30,2.20
2013,09,30,11,31,1.50
2013,09,30,11,32,2.80
2013,09,30,11,33,2.20
2013,09,30,11,34,0.80
2013,09,30,11,35,2.40
2013,09,30,11,36,1.20
2013,09,30,11,37,1.30
2013,09,30,11,38,0.00
2013,09,30,11,39,0.20
2013,09,30,11,40,1.00
2013,09,30,11,41,0.00
2013,09,30,11,42,0.00
2013,09,30,11,43,0.50
2013,09,30,11,44,0.80
2013,09,30,11,45,1.60
2013,09,30,11,46,0.30
2013,09,30,11,47,0.50
2013,09,30,11,48,0.00
2013,09,30,11,49,0.20
2013,09,30,11,50,0.20
2013,09,30,11,51,0.20
2013,09,30,11,52,0.00
2013,09,30,11,53,1.20
2013,09,30,11,54,1.40
2013,09,30,11,55,1.40
2013,09,30,11,56,1.10
2013,09,30,11,57,1.90
2013,09,30,11,58,0.10
2013,09,30,11,59,1.40
2013,09,30,12,00,4.10
2013,09,30,12,01,4.50
2013,09,30,12,02,2.30
2013,09,30,12,03,0.00
2013,09,30,12,04,0.50
2013,09,30,12,05,0.20
2013,09,30,12,06,0.80
2013,09,30,12,07,0.50
2013,09,30,12,08,0.00
2013,09,30,12,09,1.10
2013,09,30,12,10,1.10
2013,09,30,12,11,2.40
2013,09,30,12,12,4.20
2013,09,30,12,13,0.70
2013,09,30,12,14,3.20
2013,09,30,12,15,6.20
2013,09,30,12,16,2.70
2013,09,30,12,17,2.20
2013,09,30,12,18,1.90
2013,09,30,12,19,0.30
2013,09,30,12,20,0.40
2013,09,30,12,21,0.60
2013,09,30,12,22,0.40
2013,09,30,12,23,0.20
2013,09,30,12,24,0.60
2013,09,30,12,25,3.50
2013,09,30,12,26,0.80
2013,09,30,12,27,1.10
2013,09,30,12,28,2.80
2013,09,30,12,29,1.50
2013,09,30,12,30,1.80
2013,09,30,12,31,0.60
2013,09,30,12,32,2.50
2013,09,30,12,33,1.90
2013,09,30,12,34,0.00
2013,09,30,12,35,2.00
2013,09,30,12,36,1.70
2013,09,30,12,37,0.00
2013,09,30,12,38,0.20
2013,09,30,12,39,1.20
2013,09,30,12,40,0.00
2013,09,30,12,41,0.90
2013,09,30,12,42,0.20
2013,09,30,12,43,0.20
2013,09,30,12,44,1.20
2013,09,30,12,45,2.30
2013,09,30,12,46,0.50
2013,09,30,12,47,0.20
2013,09,30,12,48,0.00
2013,09,30,12,49,0.40
2013,09,30,12,50,0.50
2013,09,30,12,51,1.00
2013,09,30,12,52,1.10
2013,09,30,12,53,0.80
2013,09,30,12,54,1.00
2013,09,30,12,55,0.20
2013,09,30,12,56,1.10
2013,09,30,12,57,1.40
2013,09,30,12,58,0.60
2013,09,30,12,59,0.00
2013,09,30,13,00,0.20
2013,09,30,13,01,1.40
2013,09,30,13,02,0.80
2013,09,30,13,03,1.00
2013,09,30,13,04,0.50
2013,09,30,13,05,0.30
2013,09,30,13,06,2.30
2013,09,30,13,07,1.90
2013,09,30,13,08,0.00
2013,09,30,13,09,0.30
2013,09,30,13,10,0.60
2013,09,30,13,11,0.00
2013,09,30,13,12,0.00
2013,09,30,13,13,0.90
2013,09,30,13,14,0.20
2013,09,30,13,15,0.40
2013,09,30,13,16,2.90
2013,09,30,13,17,2.60
2013,09,30,13,18,0.50
2013,09,30,13,19,2.00
2013,09,30,13,20,0.10
2013,09,30,13,21,0.10
2013,09,30,13,22,3.10
2013,09,30,13,23,3.90
2013,09,30,13,24,2.40
2013,09,30,13,25,5.30
2013,09,30,13,26,2.20
2013,09,30,13,27,3.80
2013,09,30,13,28,2.10
2013,09,30,13,29,1.60
2013,09,30,13,30,3.10
2013,09,30,13,31,3.90
2013,09,30,13,32,1.90
2013,09,30,13,33,1.00
2013,09,30,13,34,1.60
2013,09,30,13,35,2.70
2013,09,30,13,36,1.40
2013,09,30,13,37,1.10
2013,09,30,13,38,0.30
2013,09,30,13,39,1.00
2013,09,30,13,40,1.80
2013,09,30,13,41,0.70
2013,09,30,13,42,1.00
2013,09,30,13,43,1.90
2013,09,30,13,44,1.20
2013,09,30,13,45,0.80
2013,09,30,13,46,1.80
2013,09,30,13,47,3.10
2013,09,30,13,48,5.20
2013,09,30,13,49,3.20
2013,09,30,13,50,2.10
2013,09,30,13,51,5.10
2013,09,30,13,52,6.80
2013,09,30,13,53,4.10
2013,09,30,13,54,2.00
2013,09,30,13,55,0.80
2013,09,30,13,56,3.50
2013,09,30,13,57,1.90
2013,09,30,13,58,0.60
2013,09,30,13,59,0.00
2013,09,30,14,00,0.10
2013,09,30,14,01,0.00
2013,09,30,14,02,1.70
2013,09,30,14,03,0.20
2013,09,30,14,04,0.20
2013,09,30,14,05,0.10
2013,09,30,14,06,2.60
2013,09,30,14,07,0.40
2013,09,30,14,08,0.80
2013,09,30,14,09,0.00
2013,09,30,14,10,0.80
2013,09,30,14,11,0.10
2013,09,30,14,12,0.00
2013,09,30,14,13,0.10
2013,09,30,14,14,0.00
2013,09,30,14,15,0.00
2013,09,30,14,16,0.20
2013,09,30,14,17,0.20
2013,09,30,14,18,0.10
2013,09,30,14,19,0.60
2013,09,30,14,20,0.60
2013,09,30,14,21,0.30
2013,09,30,14,22,1.20
2013,09,30,14,23,0.30
2013,09,30,14,24,0.60
2013,09,30,14,25,1.60
2013,09,30,14,26,1.90
2013,09,30,14,27,0.40
2013,09,30,14,28,0.80
2013,09,30,14,29,0.70
2013,09,30,14,30,0.00
2013,09,30,14,31,0.40
2013,09,30,14,32,0.10
2013,09,30,14,33,0.10
2013,09,30,14,34,0.00
2013,09,30,14,35,0.00
2013,09,30,14,36,0.50
2013,09,30,14,37,1.70
2013,09,30,14,38,1.00
2013,09,30,14,39,1.30
2013,09,30,14,40,2.30
2013,09,30,14,41,1.80
2013,09,30,14,42,4.60
2013,09,30,14,43,1.80
2013,09,30,14,44,2.20
2013,09,30,14,45,2.30
2013,09,30,14,46,0.20
2013,09,30,14,47,1.50
2013,09,30,14,48,1.40
2013,09,30,14,49,0.60
2013,09,30,14,50,1.00
2013,09,30,14,51,2.00
2013,09,30,14,52,1.00
2013,09,30,14,53,2.30
2013,09,30,14,54,1.90
2013,09,30,14,55,3.20
2013,09,30,14,56,4.80
2013,09,30,14,57,1.30
2013,09,30,14,58,0.90
2013,09,30,14,59,1.60
2013,09,30,15,00,3.30
2013,09,30,15,01,4.80
2013,09,30,15,02,1.40
2013,09,30,15,03,0.00
2013,09,30,15,04,0.10
2013,09,30,15,05,1.10
2013,09,30,15,06,0.60
2013,09,30,15,07,0.10
2013,09,30,15,08,0.00
2013,09,30,15,09,0.00
2013,09,30,15,10,0.00
2013,09,30,15,11,0.00
2013,09,30,15,12,0.80
2013,09,30,15,13,0.00
2013,09,30,15,14,0.10
2013,09,30,15,15,0.00
2013,09,30,15,16,0.00
2013,09,30,15,17,0.10
2013,09,30,15,18,1.80
2013,09,30,15,19,3.00
2013,09,30,15,20,0.70
2013,09,30,15,21,0.20
2013,09,30,15,22,1.10
2013,09,30,15,23,0.50
2013,09,30,15,24,0.40
2013,09,30,15,25,0.00
2013,09,30,15,26,0.70
2013,09,30,15,27,0.10
2013,09,30,15,28,0.00
2013,09,30,15,29,0.10
2013,09,30,15,30,0.30
2013,09,30,15,31,1.10
2013,09,30,15,32,0.00
2013,09,30,15,33,0.10
2013,09,30,15,34,3.00
2013,09,30,15,35,5.40
2013,09,30,15,36,1.30
2013,09,30,15,37,2.70
2013,09,30,15,38,1.30
2013,09,30,15,39,2.20
2013,09,30,15,40,0.70
2013,09,30,15,41,2.20
2013,09,30,15,42,1.60
2013,09,30,15,43,0.30
2013,09,30,15,44,1.20
2013,09,30,15,45,0.10
2013,09,30,15,46,0.40
2013,09,30,15,47,2.50
2013,09,30,15,48,1.40
2013,09,30,15,49,0.10
2013,09,30,15,50,0.10
2013,09,30,15,51,0.60
2013,09,30,15,52,1.00
2013,09,30,15,53,2.10
2013,09,30,15,54,0.80
2013,09,30,15,55,0.60
2013,09,30,15,56,0.40
2013,09,30,15,57,1.50
2013,09,30,15,58,0.20
2013,09,30,15,59,2.60
2013,09,30,16,00,2.40
2013,09,30,16,01,1.00
2013,09,30,16,02,0.10
2013,09,30,16,03,0.00
2013,09,30,16,04,0.00
2013,09,30,16,05,0.20
2013,09,30,16,06,0.90
2013,09,30,16,07,3.90
2013,09,30,16,08,0.90
2013,09,30,16,09,0.00
2013,09,30,16,10,0.20
2013,09,30,16,11,3.60
2013,09,30,16,12,0.70
2013,09,30,16,13,0.00
2013,09,30,16,14,0.00
2013,09,30,16,15,0.50
2013,09,30,16,16,0.10
2013,09,30,16,17,0.00
2013,09,30,16,18,0.00
2013,09,30,16,19,0.00
2013,09,30,16,20,0.00
2013,09,30,16,21,0.10
2013,09,30,16,22,0.00
2013,09,30,16,23,0.10
2013,09,30,16,24,0.70
2013,09,30,16,25,0.20
2013,09,30,16,26,0.10
2013,09,30,16,27,0.50
2013,09,30,16,28,0.00
2013,09,30,16,29,0.00
2013,09,30,16,30,0.00
2013,09,30,16,31,0.00
2013,09,30,16,32,0.70
2013,09,30,16,33,0.30
2013,09,30,16,34,0.10
2013,09,30,16,35,0.60
2013,09,30,16,36,2.00
2013,09,30,16,37,0.90
2013,09,30,16,38,1.90
2013,09,30,16,39,0.70
2013,09,30,16,40,3.10
2013,09,30,16,41,1.50
2013,09,30,16,42,0.20
2013,09,30,16,43,0.00
2013,09,30,16,44,0.00
2013,09,30,16,45,0.00
2013,09,30,16,46,0.00
2013,09,30,16,47,1.00
2013,09,30,16,48,0.90
2013,09,30,16,49,0.60
2013,09,30,16,50,1.40
2013,09,30,16,51,0.60
2013,09,30,16,52,1.20
2013,09,30,16,53,0.90
2013,09,30,16,54,0.90
2013,09,30,16,55,0.90
2013,09,30,16,56,1.50
2013,09,30,16,57,3.50
2013,09,30,16,58,2.50
2013,09,30,16,59,4.10
2013,09,30,17,00,3.90
2013,09,30,17,01,2.40
2013,09,30,17,02,2.00
2013,09,30,17,03,3.50
2013,09,30,17,04,3.30
2013,09,30,17,05,4.00
2013,09,30,17,06,3.90
2013,09,30,17,07,4.20
2013,09,30,17,08,3.20
2013,09,30,17,09,5.20
2013,09,30,17,10,3.00
2013,09,30,17,11,4.60
2013,09,30,17,12,8.30
2013,09,30,17,13,6.00
2013,09,30,17,14,5.50
2013,09,30,17,15,7.20
2013,09,30,17,16,5.60
2013,09,30,17,17,5.30
2013,09,30,17,18,5.70
2013,09,30,17,19,8.30
2013,09,30,17,20,5.60
2013,09,30,17,21,4.70
2013,09,30,17,22,5.00
2013,09,30,17,23,8.00
2013,09,30,17,24,2.50
2013,09,30,17,25,5.80
2013,09,30,17,26,5.90
2013,09,30,17,27,2.30
2013,09,30,17,28,4.50
2013,09,30,17,29,2.70
2013,09,30,17,30,2.00
2013,09,30,17,31,3.30
2013,09,30,17,32,1.40
2013,09,30,17,33,2.80
2013,09,30,17,34,4.00
2013,09,30,17,35,1.70
2013,09,30,17,36,1.40
2013,09,30,17,37,1.10
2013,09,30,17,38,0.30
2013,09,30,17,39,2.70
2013,09,30,17,40,0.60
2013,09,30,17,41,1.50
2013,09,30,17,42,1.90
2013,09,30,17,43,1.30
2013,09,30,17,44,1.40
2013,09,30,17,45,0.60
2013,09,30,17,46,1.70
2013,09,30,17,47,0.20
2013,09,30,17,48,0.00
2013,09,30,17,49,1.50
2013,09,30,17,50,4.90
2013,09,30,17,51,2.30
2013,09,30,17,52,1.80
2013,09,30,17,53,2.50
2013,09,30,17,54,0.40
2013,09,30,17,55,3.10
2013,09,30,17,56,2.10
2013,09,30,17,57,1.60
2013,09,30,17,58,0.00
2013,09,30,17,59,0.00
2013,09,30,18,00,0.30
2013,09,30,18,01,0.10
2013,09,30,18,02,0.60
2013,09,30,18,03,0.00
2013,09,30,18,04,0.00
2013,09,30,18,05,0.50
2013,09,30,18,06,1.70